owner,sensor,date,latitude,longitude,vertical_datum,sea_water_practical_salinity,qcFlag 
SCCF RECON,ioos:station:SCCF:12:1,2012-01-01T00:00:00Z,26.4966,-82.1479,2.34,32.37,1111122 
SCCF RECON,ioos:station:SCCF:12:1,2012-01-01T01:00:00Z,26.4966,-82.1479,2.3,32.36,1111122 
SCCF RECON,ioos:station:SCCF:12:1,2012-01-01T02:00:00Z,26.4966,-82.1479,2.221,32.33,1111122 
SCCF RECON,ioos:station:SCCF:12:1,2012-01-01T03:00:00Z,26.4966,-82.1479,2.15,32.36,1111122 
SCCF RECON,ioos:station:SCCF:12:1,2012-01-01T04:00:00Z,26.4966,-82.1479,2.1,32.36,1111122 
SCCF RECON,ioos:station:SCCF:12:1,2012-01-01T05:00:00Z,26.4966,-82.1479,2.046,32.34,1111122 
SCCF RECON,ioos:station:SCCF:12:1,2012-01-01T06:00:00Z,26.4966,-82.1479,2.01,32.32,1111122 
SCCF RECON,ioos:station:SCCF:12:1,2012-01-01T07:00:00Z,26.4966,-82.1479,2.008,32.33,1111122 
SCCF RECON,ioos:station:SCCF:12:1,2012-01-01T08:00:00Z,26.4966,-82.1479,2.03,32.36,1111122 
SCCF RECON,ioos:station:SCCF:12:1,2012-01-01T09:00:00Z,26.4966,-82.1479,2.11,32.36,1111122 
SCCF RECON,ioos:station:SCCF:12:1,2012-01-01T10:00:00Z,26.4966,-82.1479,2.18,32.38,1111122 
SCCF RECON,ioos:station:SCCF:12:1,2012-01-01T11:00:00Z,26.4966,-82.1479,2.21,32.39,1111122 
SCCF RECON,ioos:station:SCCF:12:1,2012-01-01T12:00:00Z,26.4966,-82.1479,2.19,32.39,1111122 
SCCF RECON,ioos:station:SCCF:12:1,2012-01-01T13:00:00Z,26.4966,-82.1479,2.18,32.35,1111122 
SCCF RECON,ioos:station:SCCF:12:1,2012-01-01T14:00:00Z,26.4966,-82.1479,2.14,32.37,1111122 
SCCF RECON,ioos:station:SCCF:12:1,2012-01-01T15:00:00Z,26.4966,-82.1479,2.099,32.33,1111122 
SCCF RECON,ioos:station:SCCF:12:1,2012-01-01T16:00:00Z,26.4966,-82.1479,2.069,32.33,1111122 
SCCF RECON,ioos:station:SCCF:12:1,2012-01-01T17:00:00Z,26.4966,-82.1479,2.059,32.33,1111122 
SCCF RECON,ioos:station:SCCF:12:1,2012-01-01T18:00:00Z,26.4966,-82.1479,2.055,32.34,1111122 
SCCF RECON,ioos:station:SCCF:12:1,2012-01-01T19:00:00Z,26.4966,-82.1479,2.068,32.34,1111122 
SCCF RECON,ioos:station:SCCF:12:1,2012-01-01T20:00:00Z,26.4966,-82.1479,2.12,32.35,1111122 
SCCF RECON,ioos:station:SCCF:12:1,2012-01-01T21:00:00Z,26.4966,-82.1479,2.194,32.36,1111122 
SCCF RECON,ioos:station:SCCF:12:1,2012-01-01T22:00:00Z,26.4966,-82.1479,2.272,32.34,1111122 
SCCF RECON,ioos:station:SCCF:12:1,2012-01-01T23:00:00Z,26.4966,-82.1479,2.32,32.33,1111122 
SCCF RECON,ioos:station:SCCF:12:1,2012-01-02T00:00:00Z,26.4966,-82.1479,2.329,32.35,1111122 
SCCF RECON,ioos:station:SCCF:12:1,2012-01-02T01:00:00Z,26.4966,-82.1479,2.31,32.36,1111122 
SCCF RECON,ioos:station:SCCF:12:1,2012-01-02T02:00:00Z,26.4966,-82.1479,2.23,32.3,1111122 
SCCF RECON,ioos:station:SCCF:12:1,2012-01-02T03:00:00Z,26.4966,-82.1479,2.16,32.33,1111122 
SCCF RECON,ioos:station:SCCF:12:1,2012-01-02T04:00:00Z,26.4966,-82.1479,2.078,32.34,1111122 
SCCF RECON,ioos:station:SCCF:12:1,2012-01-02T05:00:00Z,26.4966,-82.1479,1.999,32.34,1111122 
SCCF RECON,ioos:station:SCCF:12:1,2012-01-02T06:00:00Z,26.4966,-82.1479,1.93,32.34,1111122 
SCCF RECON,ioos:station:SCCF:12:1,2012-01-02T07:00:00Z,26.4966,-82.1479,1.87,32.33,1111122 
SCCF RECON,ioos:station:SCCF:12:1,2012-01-02T08:00:00Z,26.4966,-82.1479,1.84,32.4,1111122 
SCCF RECON,ioos:station:SCCF:12:1,2012-01-02T09:00:00Z,26.4966,-82.1479,1.87,32.46,1111122 
SCCF RECON,ioos:station:SCCF:12:1,2012-01-02T10:00:00Z,26.4966,-82.1479,1.97,32.4,1111122 
SCCF RECON,ioos:station:SCCF:12:1,2012-01-02T11:00:00Z,26.4966,-82.1479,2.06,32.35,1111122 
SCCF RECON,ioos:station:SCCF:12:1,2012-01-02T12:00:00Z,26.4966,-82.1479,2.1,32.33,1111122 
SCCF RECON,ioos:station:SCCF:12:1,2012-01-02T13:00:00Z,26.4966,-82.1479,2.1,32.36,1111122 
SCCF RECON,ioos:station:SCCF:12:1,2012-01-02T14:00:00Z,26.4966,-82.1479,2.096,32.36,1111122 
SCCF RECON,ioos:station:SCCF:12:1,2012-01-02T15:00:00Z,26.4966,-82.1479,2.085,32.43,1111122 
SCCF RECON,ioos:station:SCCF:12:1,2012-01-02T16:00:00Z,26.4966,-82.1479,2.142,32.41,1111122 
SCCF RECON,ioos:station:SCCF:12:1,2012-01-02T17:00:00Z,26.4966,-82.1479,2.117,32.38,1111122 
SCCF RECON,ioos:station:SCCF:12:1,2012-01-02T18:00:00Z,26.4966,-82.1479,2.118,32.39,1111122 
SCCF RECON,ioos:station:SCCF:12:1,2012-01-02T19:00:00Z,26.4966,-82.1479,2.108,32.37,1111122 
SCCF RECON,ioos:station:SCCF:12:1,2012-01-02T20:00:00Z,26.4966,-82.1479,2.099,32.39,1111122 
SCCF RECON,ioos:station:SCCF:12:1,2012-01-02T21:00:00Z,26.4966,-82.1479,2.144,32.59,1111122 
SCCF RECON,ioos:station:SCCF:12:1,2012-01-02T22:00:00Z,26.4966,-82.1479,2.172,32.93,1111122 
SCCF RECON,ioos:station:SCCF:12:1,2012-01-02T23:00:00Z,26.4966,-82.1479,2.209,33.28,1111122 
SCCF RECON,ioos:station:SCCF:12:1,2012-01-03T00:00:00Z,26.4966,-82.1479,2.238,33.52,1111122 
SCCF RECON,ioos:station:SCCF:12:1,2012-01-03T01:00:00Z,26.4966,-82.1479,2.233,33.66,1111122 
SCCF RECON,ioos:station:SCCF:12:1,2012-01-03T02:00:00Z,26.4966,-82.1479,2.193,33.77,1111122 
SCCF RECON,ioos:station:SCCF:12:1,2012-01-03T03:00:00Z,26.4966,-82.1479,2.112,33.89,1111122 
SCCF RECON,ioos:station:SCCF:12:1,2012-01-03T04:00:00Z,26.4966,-82.1479,2.046,33.95,1111122 
SCCF RECON,ioos:station:SCCF:12:1,2012-01-03T05:00:00Z,26.4966,-82.1479,1.979,34.01,1111122 
SCCF RECON,ioos:station:SCCF:12:1,2012-01-03T06:00:00Z,26.4966,-82.1479,1.91,34.01,1111122 
SCCF RECON,ioos:station:SCCF:12:1,2012-01-03T07:00:00Z,26.4966,-82.1479,1.856,34.01,1111122 
SCCF RECON,ioos:station:SCCF:12:1,2012-01-03T08:00:00Z,26.4966,-82.1479,1.825,34.05,1111122 
SCCF RECON,ioos:station:SCCF:12:1,2012-01-03T09:00:00Z,26.4966,-82.1479,1.795,34.11,1111122 
SCCF RECON,ioos:station:SCCF:12:1,2012-01-03T10:00:00Z,26.4966,-82.1479,1.786,34.22,1111122 
SCCF RECON,ioos:station:SCCF:12:1,2012-01-03T11:00:00Z,26.4966,-82.1479,1.821,34.24,1111122 
SCCF RECON,ioos:station:SCCF:12:1,2012-01-03T12:00:00Z,26.4966,-82.1479,1.879,34.17,1111122 
SCCF RECON,ioos:station:SCCF:12:1,2012-01-03T13:00:00Z,26.4966,-82.1479,1.944,34.25,1111122 
SCCF RECON,ioos:station:SCCF:12:1,2012-01-03T14:00:00Z,26.4966,-82.1479,1.966,34.35,1111122 
SCCF RECON,ioos:station:SCCF:12:1,2012-01-03T15:00:00Z,26.4966,-82.1479,1.916,34.45,1111122 
SCCF RECON,ioos:station:SCCF:12:1,2012-01-03T16:00:00Z,26.4966,-82.1479,1.846,34.6,1111122 
SCCF RECON,ioos:station:SCCF:12:1,2012-01-03T17:00:00Z,26.4966,-82.1479,1.793,34.59,1111122 
SCCF RECON,ioos:station:SCCF:12:1,2012-01-03T18:00:00Z,26.4966,-82.1479,1.76,34.51,1111122 
SCCF RECON,ioos:station:SCCF:12:1,2012-01-03T19:00:00Z,26.4966,-82.1479,1.776,34.46,1111122 
SCCF RECON,ioos:station:SCCF:12:1,2012-01-03T20:00:00Z,26.4966,-82.1479,1.833,34.46,1111122 
SCCF RECON,ioos:station:SCCF:12:1,2012-01-03T21:00:00Z,26.4966,-82.1479,1.909,34.42,1111122 
SCCF RECON,ioos:station:SCCF:12:1,2012-01-03T22:00:00Z,26.4966,-82.1479,1.959,34.37,1111122 
SCCF RECON,ioos:station:SCCF:12:1,2012-01-03T23:00:00Z,26.4966,-82.1479,1.996,34.39,1111122 
SCCF RECON,ioos:station:SCCF:12:1,2012-01-04T00:00:00Z,26.4966,-82.1479,2.054,34.41,1111122 
SCCF RECON,ioos:station:SCCF:12:1,2012-01-04T01:00:00Z,26.4966,-82.1479,2.146,34.4,1111122 
SCCF RECON,ioos:station:SCCF:12:1,2012-01-04T02:00:00Z,26.4966,-82.1479,2.185,34.37,1111122 
SCCF RECON,ioos:station:SCCF:12:1,2012-01-04T03:00:00Z,26.4966,-82.1479,2.173,34.27,1111122 
SCCF RECON,ioos:station:SCCF:12:1,2012-01-04T04:00:00Z,26.4966,-82.1479,2.131,34.27,1111122 
SCCF RECON,ioos:station:SCCF:12:1,2012-01-04T05:00:00Z,26.4966,-82.1479,2.071,34.3,1111122 
SCCF RECON,ioos:station:SCCF:12:1,2012-01-04T06:00:00Z,26.4966,-82.1479,1.993,34.38,1111122 
SCCF RECON,ioos:station:SCCF:12:1,2012-01-04T07:00:00Z,26.4966,-82.1479,1.891,34.43,1111122 
SCCF RECON,ioos:station:SCCF:12:1,2012-01-04T08:00:00Z,26.4966,-82.1479,1.795,34.49,1111122 
SCCF RECON,ioos:station:SCCF:12:1,2012-01-04T09:00:00Z,26.4966,-82.1479,1.732,34.59,1111122 
SCCF RECON,ioos:station:SCCF:12:1,2012-01-04T10:00:00Z,26.4966,-82.1479,1.718,34.55,1111122 
SCCF RECON,ioos:station:SCCF:12:1,2012-01-04T11:00:00Z,26.4966,-82.1479,1.77,34.47,1111122 
SCCF RECON,ioos:station:SCCF:12:1,2012-01-04T12:00:00Z,26.4966,-82.1479,1.873,34.46,1111122 
SCCF RECON,ioos:station:SCCF:12:1,2012-01-04T13:00:00Z,26.4966,-82.1479,1.972,34.37,1111122 
SCCF RECON,ioos:station:SCCF:12:1,2012-01-04T14:00:00Z,26.4966,-82.1479,2.044,34.26,1111122 
SCCF RECON,ioos:station:SCCF:12:1,2012-01-04T15:00:00Z,26.4966,-82.1479,2.092,34.05,1111122 
SCCF RECON,ioos:station:SCCF:12:1,2012-01-04T16:00:00Z,26.4966,-82.1479,2.147,33.96,1111122 
SCCF RECON,ioos:station:SCCF:12:1,2012-01-04T17:00:00Z,26.4966,-82.1479,2.18,34.15,1111122 
SCCF RECON,ioos:station:SCCF:12:1,2012-01-04T18:00:00Z,26.4966,-82.1479,2.19,34.38,1111122 
SCCF RECON,ioos:station:SCCF:12:1,2012-01-04T19:00:00Z,26.4966,-82.1479,2.162,34.39,1111122 
SCCF RECON,ioos:station:SCCF:12:1,2012-01-04T20:00:00Z,26.4966,-82.1479,2.135,34.35,1111122 
SCCF RECON,ioos:station:SCCF:12:1,2012-01-04T21:00:00Z,26.4966,-82.1479,2.159,34.39,1111122 
SCCF RECON,ioos:station:SCCF:12:1,2012-01-04T22:00:00Z,26.4966,-82.1479,2.213,34.37,1111122 
SCCF RECON,ioos:station:SCCF:12:1,2012-01-04T23:00:00Z,26.4966,-82.1479,2.288,34.25,1111122 
SCCF RECON,ioos:station:SCCF:12:1,2012-01-05T00:00:00Z,26.4966,-82.1479,2.32,34.27,1111122 
SCCF RECON,ioos:station:SCCF:12:1,2012-01-05T01:00:00Z,26.4966,-82.1479,2.356,34.24,1111122 
SCCF RECON,ioos:station:SCCF:12:1,2012-01-05T02:00:00Z,26.4966,-82.1479,2.377,34.17,1111122 
SCCF RECON,ioos:station:SCCF:12:1,2012-01-05T03:00:00Z,26.4966,-82.1479,2.37,34.09,1111122 
SCCF RECON,ioos:station:SCCF:12:1,2012-01-05T04:00:00Z,26.4966,-82.1479,2.308,34.1,1111122 
SCCF RECON,ioos:station:SCCF:12:1,2012-01-05T05:00:00Z,26.4966,-82.1479,2.233,34.11,1111122 
SCCF RECON,ioos:station:SCCF:12:1,2012-01-05T06:00:00Z,26.4966,-82.1479,2.128,34.15,1111122 
SCCF RECON,ioos:station:SCCF:12:1,2012-01-05T07:00:00Z,26.4966,-82.1479,2.009,34.2,1111122 
SCCF RECON,ioos:station:SCCF:12:1,2012-01-05T08:00:00Z,26.4966,-82.1479,1.906,34.12,1111122 
SCCF RECON,ioos:station:SCCF:12:1,2012-01-05T09:00:00Z,26.4966,-82.1479,1.809,34.0,1111122 
SCCF RECON,ioos:station:SCCF:12:1,2012-01-05T10:00:00Z,26.4966,-82.1479,1.73,33.92,1111122 
SCCF RECON,ioos:station:SCCF:12:1,2012-01-05T11:00:00Z,26.4966,-82.1479,1.71,33.86,1111122 
SCCF RECON,ioos:station:SCCF:12:1,2012-01-05T12:00:00Z,26.4966,-82.1479,1.792,33.82,1111122 
SCCF RECON,ioos:station:SCCF:12:1,2012-01-05T13:00:00Z,26.4966,-82.1479,1.93,33.78,1111122 
SCCF RECON,ioos:station:SCCF:12:1,2012-01-05T14:00:00Z,26.4966,-82.1479,2.038,33.78,1111122 
SCCF RECON,ioos:station:SCCF:12:1,2012-01-05T15:00:00Z,26.4966,-82.1479,2.129,33.8,1111122 
SCCF RECON,ioos:station:SCCF:12:1,2012-01-05T16:00:00Z,26.4966,-82.1479,2.2,33.86,1111122 
SCCF RECON,ioos:station:SCCF:12:1,2012-01-05T17:00:00Z,26.4966,-82.1479,2.229,33.94,1111122 
SCCF RECON,ioos:station:SCCF:12:1,2012-01-05T18:00:00Z,26.4966,-82.1479,2.197,33.9,1111122 
SCCF RECON,ioos:station:SCCF:12:1,2012-01-05T19:00:00Z,26.4966,-82.1479,2.109,33.9,1111122 
SCCF RECON,ioos:station:SCCF:12:1,2012-01-05T20:00:00Z,26.4966,-82.1479,2.055,33.98,1111122 
SCCF RECON,ioos:station:SCCF:12:1,2012-01-05T21:00:00Z,26.4966,-82.1479,2.08,33.96,1111122 
SCCF RECON,ioos:station:SCCF:12:1,2012-01-05T22:00:00Z,26.4966,-82.1479,2.16,33.94,1111122 
SCCF RECON,ioos:station:SCCF:12:1,2012-01-05T23:00:00Z,26.4966,-82.1479,2.24,33.89,1111122 
SCCF RECON,ioos:station:SCCF:12:1,2012-01-06T00:00:00Z,26.4966,-82.1479,2.302,33.9,1111122 
SCCF RECON,ioos:station:SCCF:12:1,2012-01-06T01:00:00Z,26.4966,-82.1479,2.36,33.99,1111122 
SCCF RECON,ioos:station:SCCF:12:1,2012-01-06T02:00:00Z,26.4966,-82.1479,2.41,34.14,1111122 
SCCF RECON,ioos:station:SCCF:12:1,2012-01-06T03:00:00Z,26.4966,-82.1479,2.43,34.14,1111122 
SCCF RECON,ioos:station:SCCF:12:1,2012-01-06T04:00:00Z,26.4966,-82.1479,2.43,34.15,1111122 
SCCF RECON,ioos:station:SCCF:12:1,2012-01-06T05:00:00Z,26.4966,-82.1479,2.381,34.11,1111122 
SCCF RECON,ioos:station:SCCF:12:1,2012-01-06T06:00:00Z,26.4966,-82.1479,2.27,33.97,1111122 
SCCF RECON,ioos:station:SCCF:12:1,2012-01-06T07:00:00Z,26.4966,-82.1479,2.124,33.89,1111122 
SCCF RECON,ioos:station:SCCF:12:1,2012-01-06T08:00:00Z,26.4966,-82.1479,1.99,33.89,1111122 
SCCF RECON,ioos:station:SCCF:12:1,2012-01-06T09:00:00Z,26.4966,-82.1479,1.88,33.89,1111122 
SCCF RECON,ioos:station:SCCF:12:1,2012-01-06T10:00:00Z,26.4966,-82.1479,1.79,33.96,1111122 
SCCF RECON,ioos:station:SCCF:12:1,2012-01-06T11:00:00Z,26.4966,-82.1479,1.74,33.9,1111122 
SCCF RECON,ioos:station:SCCF:12:1,2012-01-06T12:00:00Z,26.4966,-82.1479,1.801,34.02,1111122 
SCCF RECON,ioos:station:SCCF:12:1,2012-01-06T13:00:00Z,26.4966,-82.1479,1.949,34.01,1111122 
SCCF RECON,ioos:station:SCCF:12:1,2012-01-06T14:00:00Z,26.4966,-82.1479,2.073,33.99,1111122 
SCCF RECON,ioos:station:SCCF:12:1,2012-01-06T15:00:00Z,26.4966,-82.1479,2.171,33.92,1111122 
SCCF RECON,ioos:station:SCCF:12:1,2012-01-06T16:00:00Z,26.4966,-82.1479,2.255,33.95,1111122 
SCCF RECON,ioos:station:SCCF:12:1,2012-01-06T17:00:00Z,26.4966,-82.1479,2.31,33.99,1111122 
SCCF RECON,ioos:station:SCCF:12:1,2012-01-06T18:00:00Z,26.4966,-82.1479,2.32,33.92,1111122 
SCCF RECON,ioos:station:SCCF:12:1,2012-01-06T19:00:00Z,26.4966,-82.1479,2.284,34.0,1111122 
SCCF RECON,ioos:station:SCCF:12:1,2012-01-06T20:00:00Z,26.4966,-82.1479,2.229,34.09,1111122 
SCCF RECON,ioos:station:SCCF:12:1,2012-01-06T21:00:00Z,26.4966,-82.1479,2.189,34.1,1111122 
SCCF RECON,ioos:station:SCCF:12:1,2012-01-06T22:00:00Z,26.4966,-82.1479,2.19,34.09,1111122 
SCCF RECON,ioos:station:SCCF:12:1,2012-01-06T23:00:00Z,26.4966,-82.1479,2.248,34.06,1111122 
SCCF RECON,ioos:station:SCCF:12:1,2012-01-07T00:00:00Z,26.4966,-82.1479,2.337,34.04,1111122 
SCCF RECON,ioos:station:SCCF:12:1,2012-01-07T01:00:00Z,26.4966,-82.1479,2.42,34.04,1111122 
SCCF RECON,ioos:station:SCCF:12:1,2012-01-07T02:00:00Z,26.4966,-82.1479,2.47,33.97,1111122 
SCCF RECON,ioos:station:SCCF:12:1,2012-01-07T03:00:00Z,26.4966,-82.1479,2.51,33.95,1111122 
SCCF RECON,ioos:station:SCCF:12:1,2012-01-07T04:00:00Z,26.4966,-82.1479,2.51,33.96,1111122 
SCCF RECON,ioos:station:SCCF:12:1,2012-01-07T05:00:00Z,26.4966,-82.1479,2.46,33.94,1111122 
SCCF RECON,ioos:station:SCCF:12:1,2012-01-07T06:00:00Z,26.4966,-82.1479,2.37,34.03,1111122 
SCCF RECON,ioos:station:SCCF:12:1,2012-01-07T07:00:00Z,26.4966,-82.1479,2.233,34.06,1111122 
SCCF RECON,ioos:station:SCCF:12:1,2012-01-07T08:00:00Z,26.4966,-82.1479,2.08,34.05,1111122 
SCCF RECON,ioos:station:SCCF:12:1,2012-01-07T09:00:00Z,26.4966,-82.1479,1.94,34.03,1111122 
SCCF RECON,ioos:station:SCCF:12:1,2012-01-07T10:00:00Z,26.4966,-82.1479,1.81,34.05,1111122 
SCCF RECON,ioos:station:SCCF:12:1,2012-01-07T11:00:00Z,26.4966,-82.1479,1.7,34.01,1111122 
SCCF RECON,ioos:station:SCCF:12:1,2012-01-07T12:00:00Z,26.4966,-82.1479,1.65,33.95,1111122 
SCCF RECON,ioos:station:SCCF:12:1,2012-01-07T13:00:00Z,26.4966,-82.1479,1.72,33.96,1111122 
SCCF RECON,ioos:station:SCCF:12:1,2012-01-07T14:00:00Z,26.4966,-82.1479,1.895,33.98,1111122 
SCCF RECON,ioos:station:SCCF:12:1,2012-01-07T15:00:00Z,26.4966,-82.1479,2.025,33.97,1111122 
SCCF RECON,ioos:station:SCCF:12:1,2012-01-07T16:00:00Z,26.4966,-82.1479,2.128,34.0,1111122 
SCCF RECON,ioos:station:SCCF:12:1,2012-01-07T17:00:00Z,26.4966,-82.1479,2.191,33.95,1111122 
SCCF RECON,ioos:station:SCCF:12:1,2012-01-07T18:00:00Z,26.4966,-82.1479,2.228,33.93,1111122 
SCCF RECON,ioos:station:SCCF:12:1,2012-01-07T19:00:00Z,26.4966,-82.1479,2.228,33.9,1111122 
SCCF RECON,ioos:station:SCCF:12:1,2012-01-07T20:00:00Z,26.4966,-82.1479,2.188,33.83,1111122 
SCCF RECON,ioos:station:SCCF:12:1,2012-01-07T21:00:00Z,26.4966,-82.1479,2.151,33.76,1111122 
SCCF RECON,ioos:station:SCCF:12:1,2012-01-07T22:00:00Z,26.4966,-82.1479,2.151,33.65,1111122 
SCCF RECON,ioos:station:SCCF:12:1,2012-01-07T23:00:00Z,26.4966,-82.1479,2.19,33.66,1111122 
SCCF RECON,ioos:station:SCCF:12:1,2012-01-08T00:00:00Z,26.4966,-82.1479,2.25,33.75,1111122 
SCCF RECON,ioos:station:SCCF:12:1,2012-01-08T01:00:00Z,26.4966,-82.1479,2.348,33.77,1111122 
SCCF RECON,ioos:station:SCCF:12:1,2012-01-08T02:00:00Z,26.4966,-82.1479,2.45,33.83,1111122 
SCCF RECON,ioos:station:SCCF:12:1,2012-01-08T03:00:00Z,26.4966,-82.1479,2.54,33.84,1111122 
SCCF RECON,ioos:station:SCCF:12:1,2012-01-08T04:00:00Z,26.4966,-82.1479,2.59,33.86,1111122 
SCCF RECON,ioos:station:SCCF:12:1,2012-01-08T05:00:00Z,26.4966,-82.1479,2.58,33.87,1111122 
SCCF RECON,ioos:station:SCCF:12:1,2012-01-08T06:00:00Z,26.4966,-82.1479,2.51,33.85,1111122 
SCCF RECON,ioos:station:SCCF:12:1,2012-01-08T07:00:00Z,26.4966,-82.1479,2.39,33.84,1111122 
SCCF RECON,ioos:station:SCCF:12:1,2012-01-08T08:00:00Z,26.4966,-82.1479,2.24,33.82,1111122 
SCCF RECON,ioos:station:SCCF:12:1,2012-01-08T09:00:00Z,26.4966,-82.1479,2.1,33.82,1111122 
SCCF RECON,ioos:station:SCCF:12:1,2012-01-08T10:00:00Z,26.4966,-82.1479,1.97,33.77,1111122 
SCCF RECON,ioos:station:SCCF:12:1,2012-01-08T11:00:00Z,26.4966,-82.1479,1.85,33.77,1111122 
SCCF RECON,ioos:station:SCCF:12:1,2012-01-08T12:00:00Z,26.4966,-82.1479,1.751,33.57,1111122 
SCCF RECON,ioos:station:SCCF:12:1,2012-01-08T13:00:00Z,26.4966,-82.1479,1.72,33.58,1111122 
SCCF RECON,ioos:station:SCCF:12:1,2012-01-08T14:00:00Z,26.4966,-82.1479,1.841,33.72,1111122 
SCCF RECON,ioos:station:SCCF:12:1,2012-01-08T15:00:00Z,26.4966,-82.1479,2.02,33.72,1111122 
SCCF RECON,ioos:station:SCCF:12:1,2012-01-08T16:00:00Z,26.4966,-82.1479,2.149,33.72,1111122 
SCCF RECON,ioos:station:SCCF:12:1,2012-01-08T17:00:00Z,26.4966,-82.1479,2.24,33.64,1111122 
SCCF RECON,ioos:station:SCCF:12:1,2012-01-08T18:00:00Z,26.4966,-82.1479,2.276,33.49,1111122 
SCCF RECON,ioos:station:SCCF:12:1,2012-01-08T19:00:00Z,26.4966,-82.1479,2.269,33.45,1111122 
SCCF RECON,ioos:station:SCCF:12:1,2012-01-08T20:00:00Z,26.4966,-82.1479,2.215,33.4,1111122 
SCCF RECON,ioos:station:SCCF:12:1,2012-01-08T21:00:00Z,26.4966,-82.1479,2.156,33.36,1111122 
SCCF RECON,ioos:station:SCCF:12:1,2012-01-08T22:00:00Z,26.4966,-82.1479,2.108,33.19,1111122 
SCCF RECON,ioos:station:SCCF:12:1,2012-01-08T23:00:00Z,26.4966,-82.1479,2.1,33.13,1111122 
SCCF RECON,ioos:station:SCCF:12:1,2012-01-09T00:00:00Z,26.4966,-82.1479,2.13,33.16,1111122 
SCCF RECON,ioos:station:SCCF:12:1,2012-01-09T01:00:00Z,26.4966,-82.1479,2.2,33.25,1111122 
SCCF RECON,ioos:station:SCCF:12:1,2012-01-09T02:00:00Z,26.4966,-82.1479,2.3,33.47,1111122 
SCCF RECON,ioos:station:SCCF:12:1,2012-01-09T03:00:00Z,26.4966,-82.1479,2.41,33.49,1111122 
SCCF RECON,ioos:station:SCCF:12:1,2012-01-09T04:00:00Z,26.4966,-82.1479,2.496,33.51,1111122 
SCCF RECON,ioos:station:SCCF:12:1,2012-01-09T05:00:00Z,26.4966,-82.1479,2.53,33.53,1111122 
SCCF RECON,ioos:station:SCCF:12:1,2012-01-09T06:00:00Z,26.4966,-82.1479,2.49,33.49,1111122 
SCCF RECON,ioos:station:SCCF:12:1,2012-01-09T07:00:00Z,26.4966,-82.1479,2.39,33.4,1111122 
SCCF RECON,ioos:station:SCCF:12:1,2012-01-09T08:00:00Z,26.4966,-82.1479,2.26,33.24,1111122 
SCCF RECON,ioos:station:SCCF:12:1,2012-01-09T09:00:00Z,26.4966,-82.1479,2.1,33.3,1111122 
SCCF RECON,ioos:station:SCCF:12:1,2012-01-09T10:00:00Z,26.4966,-82.1479,1.96,33.27,1111122 
SCCF RECON,ioos:station:SCCF:12:1,2012-01-09T11:00:00Z,26.4966,-82.1479,1.831,33.22,1111122 
SCCF RECON,ioos:station:SCCF:12:1,2012-01-09T12:00:00Z,26.4966,-82.1479,1.717,33.18,1111122 
SCCF RECON,ioos:station:SCCF:12:1,2012-01-09T13:00:00Z,26.4966,-82.1479,1.644,33.26,1111122 
SCCF RECON,ioos:station:SCCF:12:1,2012-01-09T14:00:00Z,26.4966,-82.1479,1.689,33.34,1111122 
SCCF RECON,ioos:station:SCCF:12:1,2012-01-09T15:00:00Z,26.4966,-82.1479,1.872,33.37,1111122 
SCCF RECON,ioos:station:SCCF:12:1,2012-01-09T16:00:00Z,26.4966,-82.1479,2.043,33.41,1111122 
SCCF RECON,ioos:station:SCCF:12:1,2012-01-09T17:00:00Z,26.4966,-82.1479,2.16,33.37,1111122 
SCCF RECON,ioos:station:SCCF:12:1,2012-01-09T18:00:00Z,26.4966,-82.1479,2.231,33.34,1111122 
SCCF RECON,ioos:station:SCCF:12:1,2012-01-09T19:00:00Z,26.4966,-82.1479,2.255,33.31,1111122 
SCCF RECON,ioos:station:SCCF:12:1,2012-01-09T20:00:00Z,26.4966,-82.1479,2.229,33.2,1111122 
SCCF RECON,ioos:station:SCCF:12:1,2012-01-09T21:00:00Z,26.4966,-82.1479,2.169,33.06,1111122 
SCCF RECON,ioos:station:SCCF:12:1,2012-01-09T22:00:00Z,26.4966,-82.1479,2.119,32.89,1111122 
SCCF RECON,ioos:station:SCCF:12:1,2012-01-09T23:00:00Z,26.4966,-82.1479,2.1,32.76,1111122 
SCCF RECON,ioos:station:SCCF:12:1,2012-01-10T00:00:00Z,26.4966,-82.1479,2.12,32.83,1111122 
SCCF RECON,ioos:station:SCCF:12:1,2012-01-10T01:00:00Z,26.4966,-82.1479,2.18,32.82,1111122 
SCCF RECON,ioos:station:SCCF:12:1,2012-01-10T02:00:00Z,26.4966,-82.1479,2.27,32.92,1111122 
SCCF RECON,ioos:station:SCCF:12:1,2012-01-10T03:00:00Z,26.4966,-82.1479,2.39,33.2,1111122 
SCCF RECON,ioos:station:SCCF:12:1,2012-01-10T04:00:00Z,26.4966,-82.1479,2.497,33.25,1111122 
SCCF RECON,ioos:station:SCCF:12:1,2012-01-10T05:00:00Z,26.4966,-82.1479,2.566,33.29,1111122 
SCCF RECON,ioos:station:SCCF:12:1,2012-01-10T06:00:00Z,26.4966,-82.1479,2.58,33.3,1111122 
SCCF RECON,ioos:station:SCCF:12:1,2012-01-10T07:00:00Z,26.4966,-82.1479,2.53,33.23,1111122 
SCCF RECON,ioos:station:SCCF:12:1,2012-01-10T08:00:00Z,26.4966,-82.1479,2.41,33.17,1111122 
SCCF RECON,ioos:station:SCCF:12:1,2012-01-10T09:00:00Z,26.4966,-82.1479,2.26,33.1,1111122 
SCCF RECON,ioos:station:SCCF:12:1,2012-01-10T10:00:00Z,26.4966,-82.1479,2.12,32.75,1111122 
SCCF RECON,ioos:station:SCCF:12:1,2012-01-10T11:00:00Z,26.4966,-82.1479,1.98,33.09,1111122 
SCCF RECON,ioos:station:SCCF:12:1,2012-01-10T12:00:00Z,26.4966,-82.1479,1.85,32.94,1111122 
SCCF RECON,ioos:station:SCCF:12:1,2012-01-10T13:00:00Z,26.4966,-82.1479,1.741,32.73,1111122 
SCCF RECON,ioos:station:SCCF:12:1,2012-01-10T14:00:00Z,26.4966,-82.1479,1.7,33.1,1111122 
SCCF RECON,ioos:station:SCCF:12:1,2012-01-10T15:00:00Z,26.4966,-82.1479,1.8,32.98,1111122 
SCCF RECON,ioos:station:SCCF:12:1,2012-01-10T16:00:00Z,26.4966,-82.1479,1.989,33.02,1111122 
SCCF RECON,ioos:station:SCCF:12:1,2012-01-10T17:00:00Z,26.4966,-82.1479,2.13,33.05,1111122 
SCCF RECON,ioos:station:SCCF:12:1,2012-01-10T18:00:00Z,26.4966,-82.1479,2.23,33.01,1111122 
SCCF RECON,ioos:station:SCCF:12:1,2012-01-10T19:00:00Z,26.4966,-82.1479,2.279,32.86,1111122 
SCCF RECON,ioos:station:SCCF:12:1,2012-01-10T20:00:00Z,26.4966,-82.1479,2.269,32.88,1111122 
SCCF RECON,ioos:station:SCCF:12:1,2012-01-10T21:00:00Z,26.4966,-82.1479,2.21,32.63,1111122 
SCCF RECON,ioos:station:SCCF:12:1,2012-01-10T22:00:00Z,26.4966,-82.1479,2.14,32.64,1111122 
SCCF RECON,ioos:station:SCCF:12:1,2012-01-10T23:00:00Z,26.4966,-82.1479,2.08,32.72,1111122 
SCCF RECON,ioos:station:SCCF:12:1,2012-01-11T00:00:00Z,26.4966,-82.1479,2.061,32.78,1111122 
SCCF RECON,ioos:station:SCCF:12:1,2012-01-11T01:00:00Z,26.4966,-82.1479,2.08,32.84,1111122 
SCCF RECON,ioos:station:SCCF:12:1,2012-01-11T02:00:00Z,26.4966,-82.1479,2.14,32.82,1111122 
SCCF RECON,ioos:station:SCCF:12:1,2012-01-11T03:00:00Z,26.4966,-82.1479,2.25,32.81,1111122 
SCCF RECON,ioos:station:SCCF:12:1,2012-01-11T04:00:00Z,26.4966,-82.1479,2.4,32.84,1111122 
SCCF RECON,ioos:station:SCCF:12:1,2012-01-11T05:00:00Z,26.4966,-82.1479,2.5,32.85,1111122 
SCCF RECON,ioos:station:SCCF:12:1,2012-01-11T06:00:00Z,26.4966,-82.1479,2.56,32.81,1111122 
SCCF RECON,ioos:station:SCCF:12:1,2012-01-11T07:00:00Z,26.4966,-82.1479,2.54,32.75,1111122 
SCCF RECON,ioos:station:SCCF:12:1,2012-01-11T08:00:00Z,26.4966,-82.1479,2.46,32.65,1111122 
SCCF RECON,ioos:station:SCCF:12:1,2012-01-11T09:00:00Z,26.4966,-82.1479,2.331,32.43,1111122 
SCCF RECON,ioos:station:SCCF:12:1,2012-01-11T10:00:00Z,26.4966,-82.1479,2.22,32.34,1111122 
SCCF RECON,ioos:station:SCCF:12:1,2012-01-11T11:00:00Z,26.4966,-82.1479,2.07,32.37,1111122 
SCCF RECON,ioos:station:SCCF:12:1,2012-01-11T12:00:00Z,26.4966,-82.1479,1.836,32.43,1111122 
SCCF RECON,ioos:station:SCCF:12:1,2012-01-11T13:00:00Z,26.4966,-82.1479,1.766,32.44,1111122 
SCCF RECON,ioos:station:SCCF:12:1,2012-01-11T14:00:00Z,26.4966,-82.1479,1.849,32.42,1111122 
SCCF RECON,ioos:station:SCCF:12:1,2012-01-11T15:00:00Z,26.4966,-82.1479,1.989,32.15,1111122 
SCCF RECON,ioos:station:SCCF:12:1,2012-01-11T16:00:00Z,26.4966,-82.1479,2.169,32.34,1111122 
SCCF RECON,ioos:station:SCCF:12:1,2012-01-11T17:00:00Z,26.4966,-82.1479,2.324,32.27,1111122 